sat.trackr.live / text

‹ back to catalog

KUIPER-00188

NORAD 67142 · 2025-301K

PAYLOAD ACTIVE UNKNOWN

§ Identity

Operator
Country
US
Launch date
2025-12-16
Launch site
AFETR
Launch vehicle
Mass (kg)
RCS (m²)

External: N2YO · Heavens-Above · Gunter

§ Orbital elements

Epoch: 2026-09-20T14:27:59.975136Z

Period
97.30 min
Inclination
51.9023°
Eccentricity
0.0000573
Mean motion
14.79935402 rev/d
Perigee alt
629.1 km
Apogee alt
629.9 km
Semi-major
7,007.7 km
B*
2.3904e-4
RAAN
266.3574°
Arg perigee
54.4697°
Mean anomaly
305.6319°
Rev number
4,283

§ Raw data

KUIPER-001881 67142U 25301K   26263.60277749  .00001602  00000+0  23904-3 0  99912 67142  51.9023 266.3574 0000573  54.4697 305.6319 14.79935402 42833

JSON: /api/v1/satellites/67142 · /tle

For live sub-satellite position, see the globe view (requires WebGL).

§ Visibility from observer

Set your observer location to see the next 7 days of passes ≥ 10°. The values pass through the URL so the page stays shareable.

No JS? Fill the form by hand. The geolocation button needs JavaScript.